QPF
0.01 0.00 0.00 0.00 0.00 0.00 0.00 0.00 0.00 0.00 0.00 0.00 0.00 0.00 0.00 0.00 0.00 0.00 0.00 0.00 0.00 0.00 0.01 0.01 0.01 0.01 0.02 0.02 0.02 0.02 0.03 0.03 0.03 0.02 0.02 0.02 0.02 0.03 0.03 0.02 0.03 0.03 0.02 0.02 0.02 0.01 0.01 0.01 0.01
0.00 0.00 0.00 0.00 0.00 0.00 0.00 0.00 0.00 0.00 0.00 0.00 0.00 0.00 0.00 0.00 0.00 0.00 0.00 0.00 0.01 0.01 0.01 0.01 0.01 0.01 0.01 0.01 0.02 0.02 0.02 0.03 0.04 0.04 0.04 0.03 0.03 0.02 0.03 0.03 0.03 0.03 0.02 0.02 0.02 0.02 0.01 0.01 0.01
0.00 0.00 0.00 0.00 0.00 0.00 0.00 0.00 0.00 0.00 0.00 0.00 0.00 0.00 0.00 0.00 0.00 0.00 0.00 0.00 0.01 0.02 0.02 0.02 0.02 0.02 0.01 0.01 0.02 0.02 0.02 0.02 0.03 0.04 0.04 0.04 0.04 0.04 0.04 0.03 0.03 0.02 0.02 0.02 0.02 0.02 0.01 0.01 0.01
0.00 0.00 0.00 0.00 0.00 0.00 0.00 0.00 0.00 0.00 0.00 0.00 0.00 0.00 0.00 0.00 0.00 0.00 0.00 0.00 0.01 0.02 0.02 0.02 0.02 0.04 0.03 0.02 0.01 0.01 0.01 0.02 0.02 0.03 0.03 0.05 0.06 0.07 0.05 0.04 0.03 0.02 0.02 0.01 0.01 0.02 0.02 0.02 0.01
0.01 0.01 0.00 0.00 0.00 0.00 0.00 0.00 0.00 0.00 0.00 0.00 0.00 0.00 0.00 0.00 0.00 0.00 0.00 0.00 0.00 0.01 0.01 0.02 0.02 0.02 0.03 0.03 0.03 0.02 0.01 0.01 0.02 0.03 0.03 0.05 0.05 0.04 0.04 0.04 0.03 0.03 0.02 0.02 0.01 0.02 0.02 0.03 0.02
0.01 0.01 0.00 0.00 0.00 0.00 0.00 0.00 0.00 0.00 0.00 0.00 0.00 0.00 0.00 0.00 0.00 0.00 0.01 0.01 0.01 0.01 0.01 0.02 0.03 0.02 0.02 0.03 0.03 0.03 0.03 0.02 0.02 0.02 0.03 0.04 0.04 0.04 0.04 0.05 0.04 0.03 0.03 0.02 0.02 0.02 0.02 0.02 0.03
0.01 0.01 0.00 0.00 0.00 0.00 0.00 0.00 0.00 0.00 0.00 0.00 0.00 0.00 0.00 0.00 0.01 0.01 0.02 0.02 0.02 0.02 0.02 0.02 0.03 0.03 0.03 0.03 0.02 0.02 0.03 0.03 0.03 0.02 0.02 0.03 0.03 0.03 0.03 0.04 0.04 0.04 0.04 0.03 0.02 0.02 0.02 0.02 0.03
0.02 0.01 0.01 0.00 0.00 0.00 0.00 0.00 0.00 0.00 0.00 0.00 0.00 0.00 0.00 0.00 0.01 0.01 0.02 0.02 0.02 0.03 0.03 0.03 0.03 0.03 0.04 0.04 0.03 0.02 0.02 0.03 0.03 0.02 0.02 0.01 0.02 0.03 0.03 0.02 0.03 0.03 0.03 0.03 0.02 0.02 0.02 0.02 0.02
0.02 0.01 0.01 0.00 0.00 0.00 0.00 0.00 0.00 0.00 0.00 0.00 0.00 0.00 0.00 0.01 0.01 0.02 0.02 0.02 0.02 0.03 0.03 0.04 0.04 0.04 0.04 0.04 0.04 0.04 0.02 0.02 0.03 0.03 0.02 0.02 0.02 0.03 0.03 0.02 0.02 0.03 0.03 0.03 0.03 0.02 0.02 0.02 0.01
0.02 0.01 0.01 0.00 0.00 0.00 0.00 0.00 0.00 0.00 0.00 0.00 0.00 0.00 0.00 0.01 0.02 0.02 0.01 0.01 0.02 0.02 0.02 0.03 0.03 0.03 0.04 0.03 0.03 0.04 0.03 0.02 0.02 0.02 0.02 0.02 0.03 0.03 0.03 0.03 0.02 0.03 0.03 0.03 0.03 0.03 0.03 0.02 0.02
0.02 0.01 0.01 0.01 0.00 0.00 0.00 0.00 0.00 0.00 0.00 0.00 0.00 0.00 0.01 0.01 0.02 0.03 0.03 0.02 0.02 0.02 0.02 0.02 0.03 0.03 0.04 0.04 0.03 0.04 0.03 0.02 0.02 0.01 0.01 0.01 0.02 0.03 0.04 0.05 0.04 0.03 0.03 0.04 0.04 0.04 0.04 0.03 0.02
0.02 0.01 0.01 0.01 0.00 0.00 0.00 0.00 0.01 0.00 0.01 0.00 0.01 0.01 0.01 0.01 0.02 0.03 0.03 0.02 0.03 0.02 0.02 0.02 0.03 0.03 0.03 0.04 0.04 0.04 0.03 0.02 0.01 0.00 0.00 0.01 0.01 0.02 0.03 0.04 0.04 0.04 0.04 0.04 0.04 0.04 0.03 0.02 0.02
0.02 0.01 0.01 0.02 0.00 0.00 0.00 0.00 0.01 0.01 0.00 0.01 0.01 0.01 0.01 0.02 0.02 0.03 0.03 0.03 0.03 0.03 0.02 0.02 0.02 0.02 0.03 0.03 0.03 0.03 0.04 0.03 0.02 0.01 0.01 0.01 0.01 0.01 0.02 0.03 0.04 0.05 0.04 0.04 0.04 0.04 0.04 0.03 0.02
0.01 0.01 0.01 0.02 0.02 0.01 0.00 0.00 0.00 0.00 0.00 0.00 0.01 0.01 0.01 0.01 0.01 0.02 0.02 0.03 0.02 0.02 0.02 0.01 0.01 0.01 0.01 0.02 0.03 0.03 0.03 0.04 0.03 0.01 0.01 0.01 0.02 0.02 0.02 0.03 0.03 0.03 0.04 0.05 0.06 0.05 0.05 0.04 0.03
0.01 0.02 0.01 0.02 0.03 0.02 0.01 0.00 0.00 0.00 0.00 0.00 0.01 0.01 0.01 0.01 0.01 0.01 0.01 0.01 0.01 0.01 0.01 0.00 0.00 0.01 0.01 0.01 0.01 0.03 0.03 0.03 0.03 0.02 0.01 0.01 0.01 0.03 0.03 0.04 0.04 0.03 0.02 0.04 0.06 0.07 0.06 0.05 0.04
0.01 0.02 0.02 0.02 0.03 0.02 0.01 0.01 0.00 0.01 0.00 0.01 0.01 0.01 0.01 0.00 0.00 0.00 0.01 0.01 0.01 0.00 0.00 0.00 0.00 0.00 0.00 0.00 0.00 0.01 0.03 0.03 0.02 0.02 0.03 0.01 0.01 0.02 0.03 0.04 0.05 0.04 0.03 0.03 0.05 0.07 0.08 0.08 0.06
0.02 0.01 0.01 0.01 0.02 0.03 0.02 0.02 0.01 0.01 0.01 0.01 0.01 0.01 0.01 0.00 0.00 0.00 0.01 0.01 0.01 0.00 0.00 0.00 0.00 0.00 0.00 0.00 0.00 0.00 0.01 0.01 0.01 0.01 0.01 0.02 0.01 0.01 0.02 0.04 0.05 0.04 0.04 0.04 0.04 0.04 0.05 0.07 0.08
0.01 0.01 0.01 0.01 0.01 0.02 0.02 0.01 0.01 0.01 0.01 0.01 0.01 0.01 0.01 0.01 0.00 0.00 0.00 0.00 0.00 0.00 0.00 0.00 0.00 0.00 0.00 0.00 0.00 0.00 0.00 0.00 0.00 0.01 0.01 0.01 0.01 0.01 0.02 0.03 0.05 0.04 0.03 0.03 0.04 0.03 0.04 0.05 0.06
0.00 0.01 0.01 0.01 0.01 0.01 0.01 0.01 0.02 0.02 0.01 0.01 0.01 0.01 0.01 0.01 0.00 0.00 0.00 0.00 0.00 0.00 0.00 0.00 0.00 0.00 0.00 0.00 0.00 0.00 0.00 0.00 0.00 0.00 0.01 0.01 0.01 0.01 0.02 0.02 0.04 0.05 0.04 0.03 0.03 0.03 0.03 0.04 0.06
0.00 0.01 0.01 0.00 0.01 0.01 0.01 0.01 0.01 0.02 0.02 0.02 0.01 0.01 0.01 0.01 0.01 0.01 0.01 0.01 0.00 0.00 0.00 0.00 0.00 0.00 0.00 0.00 0.00 0.00 0.00 0.00 0.00 0.00 0.01 0.01 0.01 0.01 0.02 0.02 0.02 0.03 0.03 0.03 0.04 0.04 0.05 0.05 0.05
0.01 0.01 0.01 0.01 0.00 0.00 0.01 0.01 0.01 0.01 0.02 0.02 0.02 0.02 0.02 0.01 0.01 0.01 0.01 0.01 0.01 0.00 0.00 0.00 0.00 0.00 0.00 0.00 0.00 0.00 0.00 0.00 0.00 0.00 0.01 0.01 0.01 0.01 0.01 0.01 0.02 0.02 0.02 0.02 0.02 0.02 0.03 0.05 0.07
0.01 0.01 0.01 0.00 0.00 0.01 0.00 0.01 0.01 0.01 0.02 0.02 0.02 0.02 0.02 0.02 0.02 0.02 0.01 0.01 0.01 0.00 0.01 0.01 0.00 0.00 0.00 0.00 0.00 0.00 0.01 0.01 0.01 0.01 0.01 0.01 0.01 0.01 0.01 0.01 0.01 0.01 0.01 0.01 0.02 0.02 0.02 0.03 0.04
0.01 0.00 0.00 0.00 0.00 0.01 0.01 0.00 0.00 0.01 0.02 0.02 0.02 0.02 0.02 0.01 0.01 0.01 0.01 0.01 0.00 0.01 0.01 0.01 0.00 0.00 0.00 0.00 0.00 0.00 0.01 0.01 0.01 0.01 0.02 0.03 0.02 0.01 0.02 0.01 0.01 0.01 0.01 0.01 0.02 0.02 0.02 0.02 0.02
0.01 0.00 0.00 0.00 0.00 0.00 0.00 0.01 0.00 0.00 0.01 0.01 0.01 0.01 0.01 0.01 0.01 0.01 0.01 0.00 0.01 0.01 0.01 0.01 0.01 0.00 0.00 0.00 0.00 0.00 0.01 0.01 0.01 0.01 0.02 0.04 0.04 0.03 0.03 0.02 0.02 0.02 0.02 0.02 0.02 0.02 0.02 0.02 0.03
0.00 0.01 0.01 0.01 0.01 0.00 0.00 0.00 0.00 0.00 0.00 0.00 0.00 0.00 0.01 0.00 0.00 0.00 0.00 0.00 0.01 0.01 0.01 0.02 0.02 0.01 0.01 0.01 0.01 0.01 0.01 0.01 0.02 0.02 0.02 0.04 0.04 0.04 0.03 0.03 0.04 0.03 0.02 0.02 0.02 0.02 0.02 0.02 0.02
0.01 0.01 0.01 0.01 0.00 0.00 0.00 0.00 0.00 0.00 0.00 0.00 0.00 0.00 0.01 0.01 0.00 0.00 0.00 0.00 0.01 0.01 0.02 0.01 0.02 0.02 0.01 0.01 0.01 0.01 0.01 0.01 0.02 0.02 0.04 0.06 0.05 0.06 0.04 0.04 0.04 0.03 0.02 0.02 0.01 0.02 0.02 0.02 0.02
0.01 0.01 0.01 0.01 0.00 0.00 0.00 0.00 0.00 0.00 0.00 0.00 0.00 0.00 0.01 0.01 0.01 0.00 0.00 0.00 0.01 0.01 0.01 0.01 0.02 0.02 0.01 0.01 0.01 0.01 0.02 0.02 0.02 0.02 0.02 0.03 0.03 0.05 0.06 0.05 0.04 0.02 0.02 0.01 0.01 0.01 0.01 0.01 0.01
0.01 0.01 0.01 0.01 0.01 0.01 0.00 0.00 0.00 0.01 0.00 0.00 0.00 0.01 0.01 0.01 0.01 0.00 0.00 0.00 0.00 0.01 0.00 0.01 0.02 0.02 0.02 0.01 0.01 0.01 0.01 0.01 0.01 0.02 0.01 0.01 0.01 0.02 0.04 0.05 0.05 0.03 0.02 0.02 0.01 0.01 0.01 0.02 0.02
0.00 0.00 0.01 0.01 0.01 0.01 0.01 0.00 0.00 0.00 0.00 0.01 0.01 0.01 0.01 0.01 0.01 0.00 0.00 0.01 0.01 0.01 0.01 0.01 0.01 0.02 0.01 0.01 0.01 0.01 0.01 0.01 0.01 0.02 0.02 0.02 0.01 0.02 0.02 0.03 0.03 0.02 0.02 0.01 0.01 0.01 0.01 0.01 0.02
0.00 0.00 0.01 0.02 0.01 0.01 0.01 0.00 0.00 0.00 0.00 0.00 0.01 0.02 0.01 0.01 0.00 0.00 0.00 0.01 0.01 0.01 0.01 0.01 0.01 0.01 0.01 0.01 0.01 0.01 0.01 0.01 0.00 0.00 0.01 0.01 0.01 0.01 0.02 0.02 0.02 0.02 0.01 0.01 0.01 0.01 0.01 0.02 0.01
MSLP
1015.13 1015.24 1015.58 1016.13 1016.83 1017.61 1018.36 1019.00 1019.46 1019.72 1019.83 1019.86 1019.88 1019.99 1020.22 1020.60 1021.07 1021.58 1022.02 1022.34 1022.47 1022.41 1022.19 1021.85 1021.47 1021.10 1020.76 1020.45 1020.16 1019.85 1019.52 1019.13 1018.72 1018.30 1017.92 1017.59 1017.34 1017.16 1017.03 1016.93 1016.81 1016.66 1016.48 1016.29 1016.12 1015.98 1015.90 1015.88 1015.90
1015.29 1015.51 1015.95 1016.60 1017.39 1018.22 1019.00 1019.64 1020.08 1020.32 1020.40 1020.39 1020.40 1020.49 1020.72 1021.09 1021.55 1022.04 1022.46 1022.74 1022.85 1022.76 1022.53 1022.19 1021.81 1021.43 1021.08 1020.77 1020.46 1020.14 1019.79 1019.39 1018.97 1018.55 1018.16 1017.82 1017.56 1017.35 1017.17 1017.00 1016.81 1016.58 1016.34 1016.10 1015.89 1015.74 1015.67 1015.68 1015.73
1015.45 1015.77 1016.31 1017.03 1017.87 1018.73 1019.52 1020.14 1020.56 1020.78 1020.84 1020.83 1020.83 1020.93 1021.16 1021.53 1021.98 1022.44 1022.83 1023.08 1023.16 1023.05 1022.80 1022.46 1022.08 1021.70 1021.35 1021.03 1020.72 1020.39 1020.02 1019.61 1019.19 1018.77 1018.38 1018.05 1017.77 1017.53 1017.31 1017.08 1016.81 1016.52 1016.21 1015.91 1015.68 1015.52 1015.45 1015.47 1015.55
1015.60 1016.02 1016.63 1017.41 1018.27 1019.12 1019.89 1020.49 1020.88 1021.08 1021.14 1021.15 1021.17 1021.29 1021.53 1021.89 1022.32 1022.75 1023.10 1023.32 1023.36 1023.24 1022.98 1022.64 1022.27 1021.91 1021.56 1021.24 1020.92 1020.58 1020.20 1019.79 1019.37 1018.96 1018.58 1018.24 1017.95 1017.69 1017.43 1017.15 1016.83 1016.47 1016.11 1015.77 1015.50 1015.32 1015.25 1015.27 1015.35
1015.78 1016.27 1016.94 1017.73 1018.58 1019.41 1020.13 1020.69 1021.06 1021.25 1021.32 1021.35 1021.40 1021.54 1021.79 1022.15 1022.56 1022.95 1023.26 1023.44 1023.46 1023.32 1023.07 1022.75 1022.40 1022.05 1021.73 1021.41 1021.08 1020.73 1020.34 1019.93 1019.50 1019.09 1018.72 1018.39 1018.09 1017.82 1017.53 1017.21 1016.85 1016.45 1016.04 1015.67 1015.36 1015.16 1015.06 1015.06 1015.12
1016.04 1016.59 1017.28 1018.06 1018.87 1019.63 1020.29 1020.79 1021.13 1021.31 1021.40 1021.45 1021.54 1021.71 1021.97 1022.32 1022.70 1023.05 1023.32 1023.46 1023.46 1023.32 1023.09 1022.79 1022.47 1022.16 1021.85 1021.54 1021.22 1020.85 1020.46 1020.03 1019.60 1019.19 1018.81 1018.48 1018.19 1017.91 1017.61 1017.26 1016.87 1016.44 1015.99 1015.58 1015.24 1014.99 1014.85 1014.80 1014.81
1016.43 1017.02 1017.70 1018.44 1019.17 1019.85 1020.42 1020.85 1021.14 1021.32 1021.42 1021.50 1021.63 1021.82 1022.09 1022.42 1022.78 1023.09 1023.31 1023.42 1023.41 1023.28 1023.07 1022.81 1022.53 1022.25 1021.96 1021.66 1021.33 1020.96 1020.54 1020.10 1019.66 1019.25 1018.88 1018.55 1018.25 1017.96 1017.65 1017.29 1016.87 1016.41 1015.93 1015.48 1015.10 1014.80 1014.59 1014.47 1014.40
1016.99 1017.59 1018.24 1018.91 1019.55 1020.12 1020.58 1020.94 1021.17 1021.33 1021.43 1021.54 1021.69 1021.91 1022.18 1022.50 1022.82 1023.09 1023.28 1023.37 1023.35 1023.24 1023.06 1022.84 1022.60 1022.34 1022.07 1021.77 1021.43 1021.04 1020.61 1020.16 1019.71 1019.29 1018.92 1018.59 1018.28 1017.98 1017.66 1017.27 1016.83 1016.34 1015.83 1015.34 1014.90 1014.53 1014.26 1014.05 1013.90
1017.70 1018.30 1018.90 1019.49 1020.02 1020.47 1020.82 1021.08 1021.26 1021.38 1021.48 1021.60 1021.76 1021.98 1022.26 1022.56 1022.85 1023.09 1023.26 1023.34 1023.33 1023.23 1023.08 1022.90 1022.68 1022.45 1022.18 1021.87 1021.52 1021.11 1020.66 1020.20 1019.75 1019.33 1018.95 1018.61 1018.30 1017.98 1017.63 1017.22 1016.75 1016.22 1015.67 1015.14 1014.64 1014.21 1013.85 1013.56 1013.33
1018.51 1019.09 1019.64 1020.13 1020.55 1020.88 1021.12 1021.29 1021.40 1021.47 1021.56 1021.67 1021.84 1022.06 1022.33 1022.61 1022.88 1023.11 1023.27 1023.35 1023.35 1023.28 1023.16 1022.99 1022.80 1022.56 1022.29 1021.96 1021.59 1021.16 1020.70 1020.23 1019.78 1019.36 1018.98 1018.63 1018.30 1017.96 1017.57 1017.13 1016.61 1016.05 1015.45 1014.87 1014.32 1013.83 1013.41 1013.05 1012.75
1019.34 1019.89 1020.38 1020.79 1021.10 1021.32 1021.46 1021.53 1021.57 1021.60 1021.66 1021.75 1021.91 1022.12 1022.38 1022.65 1022.91 1023.13 1023.30 1023.39 1023.41 1023.37 1023.28 1023.13 1022.93 1022.69 1022.40 1022.04 1021.64 1021.19 1020.72 1020.25 1019.80 1019.39 1019.01 1018.66 1018.31 1017.93 1017.50 1017.01 1016.45 1015.83 1015.20 1014.57 1013.98 1013.45 1012.98 1012.57 1012.22
1020.08 1020.61 1021.04 1021.37 1021.59 1021.72 1021.77 1021.76 1021.74 1021.72 1021.73 1021.81 1021.94 1022.13 1022.37 1022.64 1022.90 1023.13 1023.32 1023.44 1023.50 1023.49 1023.42 1023.29 1023.09 1022.82 1022.50 1022.11 1021.68 1021.21 1020.73 1020.27 1019.83 1019.42 1019.05 1018.69 1018.32 1017.91 1017.44 1016.89 1016.28 1015.62 1014.95 1014.29 1013.68 1013.11 1012.61 1012.17 1011.79
1020.69 1021.17 1021.55 1021.81 1021.96 1022.01 1021.99 1021.92 1021.84 1021.77 1021.75 1021.78 1021.89 1022.06 1022.28 1022.54 1022.82 1023.07 1023.30 1023.47 1023.58 1023.61 1023.57 1023.45 1023.24 1022.96 1022.60 1022.18 1021.72 1021.23 1020.75 1020.29 1019.87 1019.48 1019.12 1018.75 1018.36 1017.92 1017.40 1016.81 1016.15 1015.46 1014.76 1014.08 1013.44 1012.87 1012.36 1011.90 1011.50
1021.11 1021.56 1021.88 1022.08 1022.17 1022.16 1022.08 1021.96 1021.83 1021.72 1021.65 1021.65 1021.72 1021.86 1022.08 1022.34 1022.63 1022.93 1023.21 1023.44 1023.61 1023.70 1023.70 1023.60 1023.40 1023.10 1022.71 1022.27 1021.78 1021.28 1020.80 1020.35 1019.95 1019.58 1019.23 1018.86 1018.45 1017.98 1017.43 1016.80 1016.11 1015.39 1014.67 1013.97 1013.33 1012.76 1012.24 1011.78 1011.36
1021.41 1021.79 1022.05 1022.20 1022.23 1022.17 1022.04 1021.87 1021.69 1021.53 1021.42 1021.38 1021.42 1021.54 1021.74 1022.02 1022.34 1022.68 1023.02 1023.33 1023.57 1023.73 1023.79 1023.73 1023.54 1023.24 1022.85 1022.38 1021.89 1021.38 1020.90 1020.47 1020.08 1019.73 1019.38 1019.02 1018.61 1018.12 1017.55 1016.90 1016.18 1015.44 1014.71 1014.01 1013.37 1012.79 1012.26 1011.79 1011.36
1021.64 1021.95 1022.14 1022.22 1022.19 1022.07 1021.89 1021.67 1021.44 1021.23 1021.08 1020.99 1021.00 1021.10 1021.29 1021.58 1021.93 1022.33 1022.74 1023.13 1023.46 1023.69 1023.82 1023.81 1023.66 1023.38 1023.00 1022.54 1022.04 1021.54 1021.07 1020.64 1020.27 1019.93 1019.60 1019.24 1018.83 1018.34 1017.76 1017.10 1016.38 1015.64 1014.90 1014.20 1013.55 1012.96 1012.43 1011.94 1011.48
1021.88 1022.11 1022.22 1022.22 1022.12 1021.93 1021.68 1021.39 1021.11 1020.85 1020.64 1020.51 1020.48 1020.56 1020.76 1021.06 1021.45 1021.90 1022.38 1022.84 1023.26 1023.58 1023.78 1023.84 1023.75 1023.51 1023.16 1022.72 1022.24 1021.75 1021.29 1020.88 1020.51 1020.18 1019.86 1019.51 1019.11 1018.63 1018.06 1017.41 1016.71 1015.97 1015.24 1014.54 1013.88 1013.28 1012.72 1012.20 1011.70
1022.22 1022.35 1022.37 1022.27 1022.08 1021.81 1021.47 1021.11 1020.75 1020.42 1020.16 1019.99 1019.93 1019.99 1020.18 1020.50 1020.92 1021.42 1021.96 1022.50 1022.99 1023.40 1023.68 1023.82 1023.79 1023.62 1023.32 1022.92 1022.47 1022.00 1021.55 1021.15 1020.79 1020.47 1020.15 1019.82 1019.43 1018.97 1018.43 1017.81 1017.13 1016.41 1015.70 1015.00 1014.34 1013.71 1013.13 1012.58 1012.04
1022.67 1022.71 1022.63 1022.43 1022.13 1021.75 1021.31 1020.86 1020.41 1020.01 1019.68 1019.46 1019.37 1019.42 1019.61 1019.94 1020.39 1020.93 1021.52 1022.12 1022.68 1023.15 1023.52 1023.73 1023.78 1023.68 1023.45 1023.10 1022.70 1022.26 1021.83 1021.43 1021.08 1020.76 1020.45 1020.12 1019.76 1019.33 1018.83 1018.25 1017.61 1016.93 1016.24 1015.55 1014.89 1014.26 1013.65 1013.07 1012.50
1023.22 1023.17 1022.99 1022.69 1022.28 1021.78 1021.23 1020.67 1020.12 1019.64 1019.25 1018.99 1018.87 1018.91 1019.10 1019.44 1019.91 1020.47 1021.09 1021.73 1022.34 1022.87 1023.29 1023.58 1023.71 1023.69 1023.52 1023.25 1022.89 1022.49 1022.09 1021.70 1021.35 1021.02 1020.72 1020.41 1020.07 1019.68 1019.22 1018.70 1018.11 1017.48 1016.82 1016.16 1015.51 1014.88 1014.26 1013.66 1013.08
1023.79 1023.68 1023.41 1023.02 1022.49 1021.89 1021.22 1020.55 1019.91 1019.34 1018.89 1018.59 1018.44 1018.47 1018.67 1019.02 1019.50 1020.07 1020.71 1021.36 1021.99 1022.56 1023.02 1023.37 1023.57 1023.62 1023.53 1023.32 1023.03 1022.67 1022.30 1021.92 1021.57 1021.25 1020.94 1020.64 1020.33 1019.98 1019.58 1019.11 1018.59 1018.02 1017.41 1016.78 1016.16 1015.54 1014.94 1014.35 1013.78
1024.32 1024.16 1023.83 1023.35 1022.74 1022.03 1021.26 1020.49 1019.75 1019.11 1018.61 1018.27 1018.11 1018.13 1018.33 1018.69 1019.17 1019.74 1020.38 1021.02 1021.65 1022.23 1022.72 1023.10 1023.35 1023.47 1023.46 1023.32 1023.09 1022.79 1022.45 1022.09 1021.75 1021.42 1021.12 1020.83 1020.53 1020.22 1019.87 1019.47 1019.01 1018.50 1017.95 1017.38 1016.79 1016.20 1015.63 1015.07 1014.53
1024.73 1024.54 1024.18 1023.64 1022.96 1022.17 1021.31 1020.45 1019.64 1018.94 1018.39 1018.02 1017.85 1017.88 1018.08 1018.44 1018.92 1019.48 1020.09 1020.71 1021.32 1021.88 1022.38 1022.78 1023.07 1023.25 1023.31 1023.25 1023.09 1022.85 1022.55 1022.22 1021.88 1021.56 1021.25 1020.97 1020.69 1020.41 1020.10 1019.75 1019.35 1018.90 1018.41 1017.89 1017.35 1016.81 1016.28 1015.77 1015.27
1024.97 1024.78 1024.40 1023.83 1023.11 1022.26 1021.34 1020.42 1019.55 1018.80 1018.22 1017.83 1017.66 1017.68 1017.89 1018.25 1018.71 1019.26 1019.83 1020.42 1020.99 1021.52 1022.00 1022.41 1022.73 1022.96 1023.08 1023.10 1023.01 1022.84 1022.59 1022.30 1021.98 1021.66 1021.36 1021.08 1020.81 1020.55 1020.27 1019.96 1019.61 1019.22 1018.77 1018.30 1017.80 1017.30 1016.82 1016.36 1015.92
1025.05 1024.86 1024.48 1023.90 1023.16 1022.29 1021.33 1020.37 1019.46 1018.68 1018.07 1017.67 1017.49 1017.52 1017.73 1018.07 1018.53 1019.04 1019.57 1020.11 1020.63 1021.12 1021.58 1021.98 1022.33 1022.60 1022.79 1022.88 1022.88 1022.78 1022.60 1022.35 1022.06 1021.76 1021.46 1021.18 1020.91 1020.65 1020.39 1020.11 1019.79 1019.43 1019.02 1018.58 1018.12 1017.66 1017.21 1016.78 1016.39
1024.97 1024.80 1024.43 1023.86 1023.12 1022.23 1021.26 1020.28 1019.35 1018.55 1017.93 1017.52 1017.33 1017.35 1017.55 1017.89 1018.31 1018.79 1019.28 1019.76 1020.23 1020.67 1021.10 1021.49 1021.86 1022.17 1022.43 1022.60 1022.68 1022.66 1022.56 1022.37 1022.12 1021.84 1021.55 1021.27 1021.00 1020.74 1020.48 1020.21 1019.90 1019.56 1019.17 1018.75 1018.30 1017.85 1017.42 1017.02 1016.66
1024.80 1024.62 1024.26 1023.71 1022.98 1022.10 1021.13 1020.14 1019.20 1018.39 1017.77 1017.35 1017.15 1017.16 1017.35 1017.66 1018.05 1018.48 1018.92 1019.34 1019.75 1020.15 1020.55 1020.94 1021.32 1021.68 1021.99 1022.25 1022.42 1022.49 1022.46 1022.34 1022.14 1021.90 1021.62 1021.34 1021.07 1020.80 1020.54 1020.27 1019.96 1019.62 1019.24 1018.82 1018.37 1017.92 1017.48 1017.08 1016.73
1024.55 1024.37 1024.01 1023.47 1022.75 1021.88 1020.92 1019.94 1019.01 1018.20 1017.57 1017.15 1016.94 1016.93 1017.09 1017.36 1017.71 1018.09 1018.48 1018.85 1019.21 1019.56 1019.93 1020.31 1020.70 1021.10 1021.48 1021.82 1022.07 1022.24 1022.30 1022.26 1022.12 1021.91 1021.66 1021.39 1021.11 1020.85 1020.57 1020.29 1019.98 1019.64 1019.25 1018.82 1018.36 1017.89 1017.44 1017.02 1016.66
1024.24 1024.04 1023.67 1023.13 1022.42 1021.57 1020.63 1019.67 1018.75 1017.96 1017.33 1016.90 1016.67 1016.64 1016.77 1017.00 1017.31 1017.63 1017.96 1018.28 1018.59 1018.91 1019.25 1019.62 1020.03 1020.46 1020.90 1021.31 1021.65 1021.91 1022.05 1022.09 1022.01 1021.85 1021.64 1021.38 1021.12 1020.84 1020.57 1020.29 1019.97 1019.63 1019.23 1018.79 1018.32 1017.83 1017.35 1016.90 1016.51
1023.89 1023.64 1023.25 1022.69 1021.98 1021.15 1020.24 1019.30 1018.42 1017.64 1017.02 1016.60 1016.36 1016.31 1016.40 1016.59 1016.85 1017.12 1017.40 1017.66 1017.93 1018.21 1018.53 1018.90 1019.32 1019.79 1020.27 1020.74 1021.16 1021.49 1021.72 1021.82 1021.81 1021.71 1021.53 1021.30 1021.05 1020.79 1020.52 1020.24 1019.94 1019.59 1019.20 1018.76 1018.28 1017.78 1017.27 1016.79 1016.36
Thickness
5692 5697 5702 5703 5700 5699 5706 5713 5717 5716 5718 5723 5727 5731 5733 5732 5730 5723 5727 5733 5734 5735 5734 5733 5732 5733 5734 5734 5734 5735 5736 5736 5736 5736 5737 5737 5737 5736 5736 5736 5736 5735 5735 5735 5734 5733 5733 5732 5731
5685 5690 5693 5693 5693 5695 5703 5711 5708 5712 5715 5717 5718 5722 5723 5720 5723 5722 5724 5725 5728 5729 5730 5729 5728 5729 5729 5730 5730 5730 5731 5732 5732 5733 5733 5733 5733 5733 5733 5733 5733 5733 5732 5732 5731 5731 5730 5729 5728
5677 5682 5683 5684 5687 5699 5702 5703 5707 5705 5707 5709 5710 5713 5715 5713 5715 5717 5718 5720 5723 5724 5724 5723 5723 5724 5724 5725 5725 5726 5727 5727 5728 5729 5729 5729 5730 5730 5730 5730 5730 5730 5729 5729 5728 5727 5727 5726 5725
5669 5671 5673 5675 5681 5689 5694 5697 5699 5697 5698 5702 5706 5703 5704 5705 5708 5711 5712 5715 5717 5718 5718 5717 5717 5718 5719 5720 5721 5721 5722 5723 5724 5724 5725 5725 5726 5726 5726 5726 5726 5726 5726 5725 5725 5724 5724 5723 5722
5659 5663 5662 5666 5675 5679 5683 5687 5690 5693 5694 5696 5699 5697 5696 5697 5701 5704 5706 5709 5711 5711 5711 5711 5711 5712 5713 5714 5715 5716 5717 5718 5719 5720 5720 5721 5721 5722 5722 5722 5722 5723 5722 5722 5722 5721 5721 5720 5719
5648 5655 5658 5663 5667 5669 5674 5677 5682 5686 5686 5688 5691 5691 5690 5691 5694 5696 5700 5702 5703 5704 5704 5705 5705 5706 5707 5708 5710 5711 5712 5712 5713 5714 5715 5716 5716 5717 5717 5718 5718 5718 5719 5719 5718 5718 5717 5717 5716
5641 5646 5653 5661 5660 5660 5664 5669 5674 5678 5679 5680 5685 5685 5684 5685 5686 5689 5692 5694 5696 5697 5697 5698 5699 5700 5701 5702 5703 5705 5706 5707 5708 5709 5710 5711 5711 5712 5712 5713 5713 5714 5714 5715 5715 5714 5714 5713 5712
5633 5638 5640 5647 5652 5654 5656 5660 5664 5669 5671 5673 5677 5678 5677 5678 5679 5682 5684 5686 5688 5689 5690 5692 5693 5694 5695 5697 5697 5698 5699 5701 5702 5703 5704 5705 5706 5707 5708 5708 5709 5709 5709 5710 5710 5710 5710 5709 5709
5623 5628 5633 5639 5645 5645 5647 5650 5652 5657 5661 5662 5666 5671 5672 5671 5672 5675 5677 5678 5680 5681 5682 5684 5686 5687 5688 5690 5691 5692 5693 5695 5696 5698 5698 5699 5702 5703 5703 5704 5704 5704 5704 5705 5705 5705 5705 5705 5705
5614 5619 5624 5628 5635 5638 5639 5643 5645 5649 5652 5653 5657 5659 5662 5663 5665 5667 5669 5671 5672 5673 5675 5677 5678 5680 5681 5683 5685 5686 5688 5689 5690 5692 5693 5694 5696 5697 5698 5698 5698 5699 5699 5700 5700 5700 5701 5701 5702
5605 5610 5613 5616 5622 5627 5630 5633 5638 5643 5644 5648 5651 5652 5653 5655 5657 5659 5661 5663 5664 5665 5667 5668 5670 5672 5674 5675 5677 5679 5681 5682 5684 5685 5686 5687 5689 5690 5692 5693 5694 5694 5694 5695 5696 5696 5697 5698 5699
5594 5597 5604 5608 5610 5616 5622 5626 5629 5633 5638 5641 5643 5645 5646 5648 5650 5651 5653 5654 5656 5657 5658 5660 5661 5664 5665 5667 5669 5671 5673 5675 5676 5678 5678 5680 5682 5683 5685 5686 5687 5688 5689 5690 5690 5691 5692 5693 5694
5588 5588 5593 5598 5603 5607 5612 5616 5619 5622 5628 5631 5632 5635 5638 5640 5642 5643 5645 5646 5647 5649 5650 5651 5653 5655 5657 5659 5661 5663 5665 5666 5668 5669 5670 5672 5674 5676 5678 5679 5680 5681 5682 5684 5684 5685 5687 5687 5688
5581 5584 5586 5590 5596 5600 5604 5608 5611 5615 5619 5622 5624 5627 5630 5632 5634 5635 5636 5637 5639 5640 5641 5643 5645 5646 5648 5650 5652 5654 5656 5657 5659 5660 5661 5663 5665 5666 5668 5670 5671 5673 5674 5675 5676 5678 5679 5680 5681
5576 5578 5581 5584 5590 5593 5598 5601 5605 5610 5613 5615 5618 5620 5622 5624 5626 5627 5628 5629 5630 5632 5633 5634 5636 5638 5640 5642 5644 5646 5647 5648 5650 5651 5652 5653 5655 5656 5658 5660 5662 5663 5664 5666 5667 5669 5670 5670 5671
5572 5576 5579 5579 5583 5587 5592 5600 5602 5604 5606 5610 5613 5615 5616 5617 5618 5619 5620 5621 5622 5623 5624 5626 5628 5629 5631 5633 5635 5637 5639 5640 5641 5642 5643 5644 5645 5647 5648 5650 5652 5653 5654 5656 5658 5660 5661 5662 5662
5569 5574 5578 5576 5577 5582 5587 5595 5597 5598 5600 5605 5608 5610 5611 5612 5612 5612 5612 5613 5614 5615 5616 5617 5619 5621 5623 5624 5626 5628 5629 5630 5632 5633 5634 5635 5636 5637 5639 5640 5641 5643 5644 5646 5648 5650 5651 5652 5653
5567 5573 5573 5574 5573 5576 5583 5591 5594 5595 5596 5601 5604 5606 5606 5607 5606 5606 5605 5605 5606 5606 5608 5609 5610 5612 5614 5616 5618 5619 5620 5621 5622 5623 5623 5624 5626 5627 5628 5630 5631 5632 5634 5636 5637 5639 5640 5642 5644
5565 5568 5570 5568 5566 5571 5580 5586 5590 5592 5593 5597 5599 5601 5601 5601 5601 5599 5598 5598 5598 5599 5600 5601 5602 5603 5605 5607 5609 5611 5612 5612 5613 5613 5613 5614 5615 5616 5618 5620 5621 5622 5624 5626 5627 5628 5629 5631 5632
5558 5562 5563 5562 5561 5565 5572 5580 5588 5589 5590 5593 5595 5597 5597 5596 5594 5593 5592 5592 5592 5592 5592 5593 5593 5595 5596 5597 5598 5599 5601 5602 5603 5603 5604 5604 5605 5606 5607 5609 5611 5612 5613 5615 5616 5616 5618 5620 5620
5552 5557 5558 5557 5557 5560 5565 5581 5586 5585 5584 5585 5587 5589 5591 5591 5590 5588 5587 5586 5586 5585 5584 5585 5585 5586 5587 5588 5589 5590 5592 5594 5595 5596 5595 5595 5595 5596 5596 5598 5599 5601 5602 5604 5604 5605 5606 5607 5609
5549 5548 5550 5551 5558 5563 5561 5573 5587 5583 5583 5584 5585 5585 5586 5586 5585 5583 5581 5580 5579 5577 5576 5576 5577 5577 5578 5579 5580 5583 5584 5586 5586 5586 5586 5585 5585 5585 5586 5587 5588 5589 5590 5592 5593 5593 5594 5595 5597
5543 5543 5545 5548 5552 5553 5557 5561 5585 5578 5581 5585 5584 5582 5581 5579 5578 5576 5574 5573 5571 5570 5569 5569 5569 5569 5570 5570 5571 5573 5574 5575 5575 5575 5576 5576 5576 5576 5576 5576 5577 5578 5579 5580 5581 5582 5583 5584 5585
5537 5540 5542 5544 5548 5551 5556 5559 5580 5583 5581 5582 5580 5578 5575 5572 5570 5569 5567 5565 5564 5563 5562 5561 5561 5562 5562 5562 5562 5563 5564 5565 5566 5566 5567 5567 5567 5566 5566 5566 5566 5566 5567 5568 5569 5571 5572 5574 5575
5538 5542 5546 5548 5551 5560 5549 5553 5574 5582 5578 5576 5575 5573 5569 5566 5564 5563 5561 5560 5559 5557 5556 5555 5555 5555 5555 5554 5554 5554 5555 5556 5557 5557 5557 5557 5557 5557 5557 5556 5556 5556 5556 5557 5558 5559 5561 5562 5563
5536 5539 5544 5551 5559 5564 5547 5556 5576 5573 5569 5566 5566 5564 5562 5561 5559 5557 5556 5555 5553 5551 5550 5549 5549 5549 5548 5547 5547 5547 5547 5547 5547 5547 5547 5547 5548 5547 5547 5547 5547 5547 5548 5547 5547 5549 5550 5551 5552
5533 5535 5533 5537 5535 5544 5562 5564 5570 5566 5564 5562 5561 5559 5558 5556 5553 5551 5550 5548 5547 5546 5544 5543 5542 5542 5541 5540 5540 5540 5540 5539 5539 5539 5538 5538 5538 5538 5538 5538 5539 5539 5539 5538 5538 5539 5540 5540 5541
5528 5530 5530 5533 5540 5552 5563 5564 5570 5567 5565 5561 5559 5557 5554 5551 5548 5546 5544 5543 5541 5539 5538 5536 5535 5535 5534 5533 5533 5533 5532 5531 5531 5531 5531 5530 5530 5530 5530 5530 5530 5531 5530 5530 5529 5529 5530 5530 5531
5524 5524 5528 5531 5533 5543 5555 5570 5570 5565 5561 5558 5556 5553 5549 5546 5543 5540 5538 5537 5535 5533 5532 5531 5530 5528 5528 5527 5526 5526 5525 5524 5524 5523 5523 5523 5523 5522 5523 5523 5523 5523 5522 5522 5521 5521 5521 5521 5521
5525 5528 5527 5530 5531 5527 5540 5560 5563 5557 5553 5550 5549 5546 5543 5540 5537 5535 5533 5531 5529 5528 5527 5525 5524 5522 5521 5520 5519 5519 5518 5518 5517 5517 5517 5516 5516 5515 5515 5515 5515 5515 5514 5514 5513 5513 5513 5512 5513